Weather in Irdomatka

Russia / Vologda Oblast     59°06′54″N   38°05′56″E
temp.,
°C
wind,
m/s
gust,
m/s
humid.,
%
clouds,
%
prec.,
mm/h
press.,
hPa
HPBL,
m
16 may, sun
sun1600:00+10sse489761 0.8 1006124
03:00+10s379992 0.9 1006136
06:00+10s489890 0.0 1006168
09:00+12s479139 0.1 1007226
12:00+14ssw598096 0.7 1008658
15:00+16ssw5107512 1.3 1009657
18:00+16sw48745 0.6 1009604
21:00+13wsw34895 0.6 101185
17 may, mon
mon1700:00+12wsw23943 0.0 101277
03:00+11w22978 0.0 101429
06:00+11sw019415 0.0 101651
09:00+14se117939 0.0 1016344
12:00+15sse337398 0.1 1017509
15:00+15sse3566100 0.1 1017532
18:00+17se2667100 0.0 1015691
21:00+15ese388383 0.0 1015167
18 may, tue
tue1800:00+14ese4987100 0.1 1014183
03:00+13ese4118849 0.3 1014226
06:00+13se4108920 0.0 1013220
09:00+18se5116924 0.0 1012425
12:00+20sse7135829 0.0 1012691
15:00+21se7135037 0.0 10111071
18:00+20se714545 0.0 1010843
21:00+18se6156639 0.0 1011457
19 may, wed
wed1900:00+16se614758 0.0 1011338
03:00+15se5128011 0.0 1010251
06:00+15se5127829 0.0 1010300
09:00+18sse6136224 0.0 1009460
12:00+20sse7145517 0.0 1009717
15:00+22se713515 0.0 10091181
18:00+21se714540 0.0 1007938
21:00+19ese716570 0.0 1007630
20 may, thu
thu2000:00+16sse71887100 1.6 1008581
03:00+13se51189100 1.6 1007312
06:00+13se4108725 0.0 1006276
09:00+17se587437 0.0 1005768
12:00+14se5128963 1.7 1004576
15:00+16sse61073100 1.9 1004759
18:00+14sse51075100 0.4 1003569
21:00+12sse5128856 0.4 1003347